BEIDOU-3 M13 (C32)

Last updated on Sat Apr 11 2026 00:03:32 GMT+0000 (Coordinated Universal Time)

1 43622U 18072A 26098.73159044 -.00000007 00000+0 00000+0 0 9999 2 43622 56.5662 64.9498 0009025 314.2751 45.6331 1.86231315 51365
UTC large
Height (km)
Speed (km/s)
/
Latitude / Longitude
Inclination (degrees)
Orbital Period (minutes)
Azimuth
Elevation
Range (km)
Doppler Factor

Next 0 passes for location: London (51.5072 / 0.1276)

Sorry there are no passes over London.